Temporada 2025 · Ronda 14

Hungarian Grand Prix

2025-08-03 · Hungaroring · Hungary · Hungarian Grand Prix · 70Lap · 306.630km
McLaren 1:35:21.231
Victoria de equipo 43pt P1 · P2 1-2
McLaren +0.698
Mercedes +21.916
Vuelta rápida
1:19.409 · L45
Abandono
1
Oliver Bearman L48
Clima
22°/32°
media aire/pista · seco · humedad 57%
Coche de seguridad
0
Despliegues de SC/VSC
Uso de neumáticos Dirección de carrera
Storylines · This Grand Prix & circuit
Más victorias en este GP
Lewis Hamilton activo 8 victorias
Michael Schumacher 4 victorias
Conversión pole-victoria 17/41 41.5%
Most DNFs · all-time P30
Most SC/VSC · all-time P31
Final más ajustado · all-time P19
Most lead changes · all-time P4
Circuito Info
Hungaroring Budapest, Hungary
70Lap 306.630km 41 carreras held (1986–) Récord de vuelta 1:16.207 · Michael Schumacher (2002)
Récords Watch · Active drivers ranked at this Grand Prix
P1 Lewis Hamilton 8 victorias · GP #1
P4 Lando Norris 2 victorias · → Ayrton Senna -1
P4 Max Verstappen 2 victorias · → Ayrton Senna -1
P1 Fernando Alonso 23 salidas · GP #1
P2 Lewis Hamilton 20 salidas · → Fernando Alonso -3
P13 Nico Hülkenberg 13 salidas · → Felipe Massa -1
Carrera Trace · position by lap
salida parada SG 1 6 11 16 21 26 31 36 41 46 51 56 61 66 FIN Norris · parada en boxes L31 Norris NOR Norris NOR Piastri · parada en boxes L18 Piastri · parada en boxes L45 Piastri PIA Piastri PIA Russell · parada en boxes L19 Russell · parada en boxes L43 Russell RUS Russell RUS Leclerc · parada en boxes L19 Leclerc · parada en boxes L40 Leclerc · +5s sumado tras la carrera Leclerc LEC Leclerc LEC Alonso · parada en boxes L39 Alonso ALO Alonso ALO Bortoleto · parada en boxes L40 Bortoleto BOR Bortoleto BOR Stroll · parada en boxes L36 Stroll STR Stroll STR Lawson · parada en boxes L40 Lawson LAW Lawson LAW Verstappen · parada en boxes L17 Verstappen · parada en boxes L48 Verstappen VER Verstappen VER Antonelli · parada en boxes L21 Antonelli ANT Antonelli ANT Hadjar · parada en boxes L33 Hadjar HAD Hadjar HAD Hamilton · parada en boxes L42 Hamilton HAM Hamilton HAM Hülkenberg · parada en boxes L5 Hülkenberg · parada en boxes L41 · sanción cumplida Hülkenberg HUL Hülkenberg HUL Sainz · parada en boxes L15 Sainz · parada en boxes L51 Sainz SAI Sainz SAI Albon · parada en boxes L14 Albon · parada en boxes L38 Albon ALB Albon ALB Ocon · parada en boxes L14 Ocon OCO Ocon OCO Tsunoda · parada en boxes L20 Tsunoda · parada en boxes L37 Tsunoda TSU Tsunoda TSU Colapinto · parada en boxes L13 Colapinto · parada en boxes L35 Colapinto COL Colapinto COL Gasly · parada en boxes L32 Gasly · +10s sumado tras la carrera Gasly GAS Gasly GAS Bearman · parada en boxes L30 Bearman · abandono L48 Bearman BEA Bearman BEA
parada en boxes sanción cumplida en boxes SG Parrilla de salida FIN clasificación oficial sanción sumada tras la carrera coche detenido posición en cada vuelta (desde 1996)
PosPilotoTeamParrillaVueltaTiempo / EstadoPuntos
1 4 Lando Norris McLaren 3 70 1:35:21.231 25
2 81 Oscar Piastri McLaren 2 70 +0.698 18
3 63 George Russell FL Mercedes 4 70 +21.916 15
4 16 Charles Leclerc Ferrari 1 70 +42.560 12
5 14 Fernando Alonso Aston Martin 5 70 +59.040 10
6 5 Gabriel Bortoleto Sauber 7 70 +1:06.169 8
7 18 Lance Stroll Aston Martin 6 70 +1:08.174 6
8 30 Liam Lawson RB F1 Team 9 70 +1:09.451 4
9 1 Max Verstappen Red Bull 8 70 +1:12.645 2
10 12 Andrea Kimi Antonelli Mercedes 15 69 +7.649 1
11 6 Isack Hadjar RB F1 Team 10 69 +8.500
12 44 Lewis Hamilton Ferrari 12 69 +9.861
13 27 Nico Hülkenberg Sauber 18 69 +31.268
14 55 Carlos Sainz Williams 13 69 +33.326
15 23 Alexander Albon Williams 19 69 +38.111
16 31 Esteban Ocon Haas F1 Team 17 69 +45.258
17 22 Yuki Tsunoda Red Bull 20 69 +46.943
18 43 Franco Colapinto Alpine F1 Team 14 69 +47.370
19 10 Pierre Gasly Alpine F1 Team 16 69 +56.344
R 87 Oliver Bearman Haas F1 Team 11 48 Retired
PosPilotoTeamQ1Q2Q3Diferencia con la pole
1 16 Charles Leclerc Ferrari 1:15.582 1:15.455 1:15.372 +0.482 Q3
2 81 Oscar Piastri McLaren 1:15.211 1:14.941 1:15.398 +0.051 Q2
3 4 Lando Norris McLaren 1:15.523 1:14.890 1:15.413 POLE Q2
4 63 George Russell Mercedes 1:15.627 1:15.201 1:15.425 +0.311 Q2
5 14 Fernando Alonso Aston Martin 1:15.281 1:15.395 1:15.481 +0.391 Q1
6 18 Lance Stroll Aston Martin 1:15.673 1:15.129 1:15.498 +0.239 Q2
7 5 Gabriel Bortoleto Sauber 1:15.586 1:15.687 1:15.725 +0.696 Q1
8 1 Max Verstappen Red Bull 1:15.736 1:15.547 1:15.728 +0.657 Q2
9 30 Liam Lawson RB F1 Team 1:15.849 1:15.630 1:15.821 +0.740 Q2
10 6 Isack Hadjar RB F1 Team 1:15.516 1:15.469 1:15.915 +0.579 Q2
11 87 Oliver Bearman Haas F1 Team 1:15.750 1:15.694 +0.804 Q2
12 44 Lewis Hamilton Ferrari 1:15.733 1:15.702 +0.812 Q2
13 55 Carlos Sainz Williams 1:15.652 1:15.781 +0.762 Q1
14 43 Franco Colapinto Alpine F1 Team 1:15.875 1:16.159 +0.985 Q1
15 12 Andrea Kimi Antonelli Mercedes 1:15.782 1:16.386 +0.892 Q1
16 22 Yuki Tsunoda Red Bull 1:15.899 +1.009 Q1
17 10 Pierre Gasly Alpine F1 Team 1:15.966 +1.076 Q1
18 31 Esteban Ocon Haas F1 Team 1:16.023 +1.133 Q1
19 27 Nico Hülkenberg Sauber 1:16.081 +1.191 Q1
20 23 Alexander Albon Williams 1:16.223 +1.333 Q1
Parrilla de salida
Oficial
13
16
10 Pierre Gasly ▲1
17
31 Esteban Ocon ▲1
18
19
23 Alexander Albon ▲1
20
22 Yuki Tsunoda ▼4
Changes made during Parc Ferme · Alleged forcing another driver off of the track
Final grid as clasificado, including any desde el pit lane salidas. Source: Jolpica-F1. The arrow compares the grid slot with the clasificación classification; hover a drop to see the stewards document behind it.
No hay datos de esta sesión.
PosPilotoMejor vueltaDiferenciaVueltas
1 4 Lando Norris 1:16.052 26
2 81 Oscar Piastri 1:16.071 +0.019 30
3 16 Charles Leclerc 1:16.269 +0.217 28
4 6 Isack Hadjar 1:16.681 +0.629 31
5 44 Lewis Hamilton 1:16.734 +0.682 28
6 87 Oliver Bearman 1:16.878 +0.826 26
7 12 Andrea Kimi Antonelli 1:16.880 +0.828 26
8 63 George Russell 1:16.925 +0.873 26
9 1 Max Verstappen 1:16.940 +0.888 25
10 18 Lance Stroll 1:16.958 +0.906 25
11 23 Alexander Albon 1:16.984 +0.932 28
12 31 Esteban Ocon 1:17.004 +0.952 26
13 10 Pierre Gasly 1:17.123 +1.071 27
14 30 Liam Lawson 1:17.184 +1.132 29
15 55 Carlos Sainz 1:17.195 +1.143 31
16 22 Yuki Tsunoda 1:17.393 +1.341 27
17 43 Franco Colapinto 1:17.464 +1.412 29
18 5 Gabriel Bortoleto 1:17.652 +1.600 17
Classified by best lap · source OpenF1 (2023+)
PosPilotoMejor vueltaDiferenciaVueltas
1 4 Lando Norris 1:15.624 27
2 81 Oscar Piastri 1:15.915 +0.291 30
3 16 Charles Leclerc 1:16.023 +0.399 28
4 18 Lance Stroll 1:16.119 +0.495 28
5 14 Fernando Alonso 1:16.233 +0.609 25
6 44 Lewis Hamilton 1:16.329 +0.705 28
7 63 George Russell 1:16.417 +0.793 27
8 6 Isack Hadjar 1:16.427 +0.803 30
9 22 Yuki Tsunoda 1:16.485 +0.861 30
10 12 Andrea Kimi Antonelli 1:16.520 +0.896 26
11 87 Oliver Bearman 1:16.567 +0.943 27
12 27 Nico Hülkenberg 1:16.680 +1.056 31
13 31 Esteban Ocon 1:16.704 +1.080 29
14 1 Max Verstappen 1:16.791 +1.167 25
15 30 Liam Lawson 1:16.812 +1.188 29
16 55 Carlos Sainz 1:16.874 +1.250 32
17 5 Gabriel Bortoleto 1:16.946 +1.322 29
18 23 Alexander Albon 1:17.021 +1.397 30
19 10 Pierre Gasly 1:17.043 +1.419 25
20 43 Franco Colapinto 1:17.159 +1.535 29
Classified by best lap · source OpenF1 (2023+)
PosPilotoMejor vueltaDiferenciaVueltas
1 81 Oscar Piastri 1:14.916 17
2 4 Lando Norris 1:14.948 +0.032 20
3 16 Charles Leclerc 1:15.315 +0.399 17
4 44 Lewis Hamilton 1:15.684 +0.768 18
5 12 Andrea Kimi Antonelli 1:15.745 +0.829 18
6 14 Fernando Alonso 1:15.794 +0.878 18
7 18 Lance Stroll 1:15.828 +0.912 21
8 63 George Russell 1:15.840 +0.924 17
9 5 Gabriel Bortoleto 1:15.978 +1.062 19
10 27 Nico Hülkenberg 1:16.025 +1.109 21
11 87 Oliver Bearman 1:16.127 +1.211 17
12 1 Max Verstappen 1:16.162 +1.246 19
13 43 Franco Colapinto 1:16.247 +1.331 21
14 30 Liam Lawson 1:16.371 +1.455 21
15 55 Carlos Sainz 1:16.442 +1.526 19
16 23 Alexander Albon 1:16.530 +1.614 20
17 31 Esteban Ocon 1:16.531 +1.615 18
18 10 Pierre Gasly 1:16.570 +1.654 22
19 22 Yuki Tsunoda 1:16.878 +1.962 19
20 6 Isack Hadjar 1:16.956 +2.040 18
Classified by best lap · source OpenF1 (2023+)
#PilotoTiempo de vueltaVuelta
1 63 George Russell 1:19.409 L45
2 81 Oscar Piastri 1:19.412 L56
3 81 Oscar Piastri 1:19.438 L57
4 81 Oscar Piastri 1:19.444 L55
5 81 Oscar Piastri 1:19.479 L58
6 81 Oscar Piastri 1:19.500 L51
7 81 Oscar Piastri 1:19.501 L52
8 81 Oscar Piastri 1:19.528 L60
9 1 Max Verstappen 1:19.576 L50
10 63 George Russell 1:19.611 L46
Top 10 más rápida race vueltas — #1 is the más rápida lap of la carrera(FL).
Paradas · cómo se comparan
22s 24s 26s 28s 30s mediana 21.5s Lando Norris · L31 · 20.940s Oscar Piastri · L45 · 20.940s Isack Hadjar · L33 · 21.096s Charles Leclerc · L19 · 21.130s Charles Leclerc · L40 · 21.136s Oscar Piastri · L18 · 21.145s Lewis Hamilton · L42 · 21.150s Max Verstappen · L48 · 21.258s Yuki Tsunoda · L20 · 21.295s Alexander Albon · L14 · 21.345s Carlos Sainz · L51 · 21.423s Max Verstappen · L17 · 21.433s George Russell · L43 · 21.450s Lance Stroll · L36 · 21.464s Yuki Tsunoda · L37 · 21.541s Nico Hülkenberg · L5 · 21.594s Carlos Sainz · L15 · 21.670s Pierre Gasly · L32 · 21.699s George Russell · L19 · 21.703s Oliver Bearman · L30 · 21.754s Gabriel Bortoleto · L40 · 21.773s Liam Lawson · L40 · 22.136s Fernando Alonso · L39 · 22.204s Andrea Kimi Antonelli · L21 · 22.328s Esteban Ocon · L14 · 22.444s Alexander Albon · L38 · 22.726s Franco Colapinto · L35 · 26.280s Nico Hülkenberg · L41 · 28.777s · sanción cumplida Franco Colapinto · L13 · 30.248s
más rápida 20.940s Lando Norris más lenta 30.248s Franco Colapinto sanción cumplida tiempo de paso por el desde el pit lane — un punto por parada
PilotoParadaVueltaTiempoPaso por el desde el pit lane
27 Nico Hülkenberg 1 5 15:10:20 21.594s
43 Franco Colapinto 1 13 15:21:30 30.248s
23 Alexander Albon 1 14 15:22:52 21.345s
31 Esteban Ocon 1 14 15:22:52 22.444s
55 Carlos Sainz 1 15 15:24:13 21.670s
1 Max Verstappen 1 17 15:26:53 21.433s
81 Oscar Piastri 1 18 15:27:53 21.145s
63 George Russell 1 19 15:29:19 21.703s
16 Charles Leclerc 1 19 15:29:12 21.130s
22 Yuki Tsunoda 1 20 15:31:19 21.295s
12 Andrea Kimi Antonelli 1 21 15:32:35 22.328s
87 Oliver Bearman 1 30 15:45:09 21.754s
4 Lando Norris 1 31 15:45:46 20.940s
10 Pierre Gasly 1 32 15:48:01 21.699s
6 Isack Hadjar 1 33 15:49:21 21.096s
43 Franco Colapinto 2 35 15:52:16 26.280s
18 Lance Stroll 1 36 15:53:16 21.464s
22 Yuki Tsunoda 2 37 15:55:04 21.541s
23 Alexander Albon 2 38 15:56:23 22.726s
14 Fernando Alonso 1 39 15:57:13 22.204s
5 Gabriel Bortoleto 1 40 15:58:41 21.773s
30 Liam Lawson 1 40 15:58:47 22.136s
16 Charles Leclerc 2 40 15:58:00 21.136s
27 Nico Hülkenberg 2 41 16:00:27 28.777s
44 Lewis Hamilton 1 42 16:01:45 21.150s
63 George Russell 2 43 16:02:16 21.450s
81 Oscar Piastri 2 45 16:04:49 20.940s
1 Max Verstappen 2 48 16:09:43 21.258s
55 Carlos Sainz 2 51 16:14:18 21.423s
paradas
SG 10 20 30 40 50 60 L70
4
1
M30
H40
81
2
M17
H27·+1
H26
63
2
M18
H24
H28
16
2
M18
H21
H31
14
1
M38·+1
H32·+1
5
1
M39
H31
18
1
M35·+1
H35·+1
30
1
M39
H31
1
2
M16
H31
H23
12
1
M20
H49
6
1
M32
H37
44
1
H41
M28
27
2
S4
M36
M29
55
2
S14
H36
M19
23
2
S13
M24
H32
31
1
M13
H56
22
2
M19
S17
H33
43
2
M12
H22
H35
10
1
H31
M38
87
1
M29
H19
S Soft M Medium H Hard I Intermediate W Wet SC·VSC parada en boxes sanción cumplida en boxes
Carrera · ancho de barra = vueltas con ese juego, ·+N = montado usado con N vueltas previas · fuente OpenF1 (2023+)
Compuestos designados para este Gran Premio
C3 Duro C4 Medio C5 Blando
Pirelli designa tres de sus compuestos secos para cada prueba; cuanto mayor es el número C, más blando es el neumático. Documento FIA ↗
Más puestos ganados en pista
27
+17
P18→P13
10
+15
P16→P19
1
+13
P8→P9
55
+13
P13→P14
22
+13
P20→P17
44
+12
P12→P12
12
+11
P15→P10
23
+10
P19→P15
Más puestos perdidos
Oliver Bearman −16 Carlos Sainz −15 Max Verstappen −13
Carrera · Suma de posiciones ganadas en pista vuelta a vuelta — se excluyen la vuelta de salida y las vueltas de boxes propias. Datos de vueltas de carrera desde 1996.
PilotoTipoVueltaCumplidaImpuestaMotivo
1 Max Verstappen No further action Doc 42 - Decision - Car 1 - Alleged forcing another driver off of the track (No further action.) Doc 42 ↗
Doc 42 - Decision - Car 1 - Alleged forcing another driver off of the track (No further action.) Doc 42 ↗
22 Yuki Tsunoda No further action Alleged forcing another driver off of the track. (No further action.) Doc 38 ↗
Alleged forcing another driver off of the track. (No further action.) Doc 38 ↗
27 Nico Hülkenberg Time penalty 9 41 +5s Doc 34 - Infringement - Car 27 - False Start (5 second time penalty.) Doc 34 ↗
Vuelta 9 · Cumplida 41 · +5s Doc 34 - Infringement - Car 27 - False Start (5 second time penalty.) Doc 34 ↗
10 Pierre Gasly Time penalty 67 Tras la carrera +10s · 2pt Car 10 collided with Car 55 in Turn 4 (10 second time penalty. 2 penalty points (total of 2 for the 12 month period)) Doc 40 ↗
Vuelta 67 · Cumplida Tras la carrera · +10s · 2pt Car 10 collided with Car 55 in Turn 4 (10 second time penalty. 2 penalty points (total of 2 for the 12 month period)) Doc 40 ↗
16 Charles Leclerc Time penalty 69 Tras la carrera +5s · 1pt Car 16 moved twice towards Car 63 when defending its position on the main straight (5 seconds time penalty (5 seconds added to elapsed Carrera time). 1 penalty point (total of 1 for the 1) Doc 41 ↗
Vuelta 69 · Cumplida Tras la carrera · +5s · 1pt Car 16 moved twice towards Car 63 when defending its position on the main straight (5 seconds time penalty (5 seconds added to elapsed Carrera time). 1 penalty point (total of 1 for the 1) Doc 41 ↗
31 Esteban Ocon Black-and-white flag warning 50
Vuelta 50
Vuelta = vuelta en que se impuso la sanción · Cumplida = vuelta en que se cumplió en boxes (en blanco: se sumó al tiempo de carrera)
Time, drive-through and stop-go penalties come from race control messages (OpenF1, 2023+). Parrilla penalties never appear there — the stewards publish them as documents after the session — so they are worked back from the starting grid against the clasificación classification, which gives places actually lost rather than the figure written in the decision.
PilotoTipoVueltaCumplidaImpuestaMotivo
22 Yuki Tsunoda Pit lane start The following Power Unit elements have been usados: 5th Internal Combustion Motor (ICE) 5th Turbo Charger (TC) 5th Motor Generator Unit - Heat (MGU-H) 5th Motor Generator Unit - Kinetic (MGU-K) Power Unit elements were replaced without the approval of the (Required to start the Carrera from the desde el pit lane.) Doc 31 ↗
The following Power Unit elements have been usados: 5th Internal Combustion Motor (ICE) 5th Turbo Charger (TC) 5th Motor Generator Unit - Heat (MGU-H) 5th Motor Generator Unit - Kinetic (MGU-K) Power Unit elements were replaced without the approval of the (Required to start the Carrera from the desde el pit lane.) Doc 31 ↗
12 Andrea Kimi Antonelli Vueltas eliminadas TRACK LIMITS (NEXT LAP PIT)
TRACK LIMITS (NEXT LAP PIT)
Vuelta = vuelta en que se impuso la sanción · Cumplida = vuelta en que se cumplió en boxes (en blanco: se sumó al tiempo de carrera)
Time, drive-through and stop-go penalties come from race control messages (OpenF1, 2023+). Parrilla penalties never appear there — the stewards publish them as documents after the session — so they are worked back from the starting grid against the clasificación classification, which gives places actually lost rather than the figure written in the decision.
PilotoTipoVueltaCumplidaImpuestaMotivo
1 Max Verstappen Black-and-white flag warning Doc 15 - Decision - Car 1 - Alleged unsafe release (Competitor: Warning.) Doc 15 ↗
Doc 15 - Decision - Car 1 - Alleged unsafe release (Competitor: Warning.) Doc 15 ↗
Vuelta = vuelta en que se impuso la sanción · Cumplida = vuelta en que se cumplió en boxes (en blanco: se sumó al tiempo de carrera)
Time, drive-through and stop-go penalties come from race control messages (OpenF1, 2023+). Parrilla penalties never appear there — the stewards publish them as documents after the session — so they are worked back from the starting grid against the clasificación classification, which gives places actually lost rather than the figure written in the decision.
DocTítuloAsuntoPublished(CET)
1 Event Notes - Pirelli Preview ↗ 2025-07-30 13:49
2025-07-30 13:49 CET
2 Car Display Procedure ↗ 2025-07-31 17:48
2025-07-31 17:48 CET
3 Carrera Director's Event Notes ↗ 2025-07-31 19:01
2025-07-31 19:01 CET
4 Event Notes - Circuito Map, Pit Lane, Emergency Exits Map, Quarantine Zone and Red Zones ↗ 2025-07-31 19:17
2025-07-31 19:17 CET
5 PU elements usados per driver up to now ↗ 2025-08-01 09:34
2025-08-01 09:34 CET
6 Self Scrutineering ↗ 2025-08-01 09:35
2025-08-01 09:35 CET
7 Entry List ↗ 2025-08-01 10:10
2025-08-01 10:10 CET
8 Car Presentation Submissions ↗ 2025-08-01 11:00
2025-08-01 11:00 CET
9 Replacement driver for FP1 ↗ 2025-08-01 11:27
2025-08-01 11:27 CET
10 Carrera Director's Event Notes V2 ↗ 2025-08-01 11:29
2025-08-01 11:29 CET
11 New PU elements for this Competition ↗ 2025-08-01 13:32
2025-08-01 13:32 CET
12 P1 Classification ↗ 2025-08-01 14:59
2025-08-01 14:59 CET
13 Summons - Car 1 - Allegedly being released in an unsafe condition ↗ 1 Max Verstappen 2025-08-01 18:01
1 Max Verstappen 2025-08-01 18:01 CET
14 P2 Classification ↗ 2025-08-01 18:22
2025-08-01 18:22 CET
15 Decision - Car 1 - Alleged unsafe release ↗ 1 Max Verstappen 2025-08-01 19:01
1 Max Verstappen 2025-08-01 19:01 CET
16 Carrera Director Notes - SC2 - SC1 Times ↗ 2025-08-01 19:15
2025-08-01 19:15 CET
17 P1 and P2 Scrutineering ↗ 2025-08-01 19:53
2025-08-01 19:53 CET
18 Curfew ↗ 2025-08-02 10:07
2025-08-02 10:07 CET
19 Post-Clasificación Procedure ↗ 2025-08-02 10:12
2025-08-02 10:12 CET
20 New PU elements for this Competition ↗ 2025-08-02 13:48
2025-08-02 13:48 CET
21 P3 Classification ↗ 2025-08-02 13:48
2025-08-02 13:48 CET
22 Provisional Clasificación Classification ↗ 2025-08-02 17:17
2025-08-02 17:17 CET
23 Clasificación SC2-SC1 Times ↗ 2025-08-02 17:38
2025-08-02 17:38 CET
24 Clasificación Deleted Vuelta Times ↗ 2025-08-02 17:42
2025-08-02 17:42 CET
25 P3 and Clasificación Scrutineering ↗ 2025-08-02 19:01
2025-08-02 19:01 CET
26 Final Clasificación Classification ↗ 2025-08-02 19:15
2025-08-02 19:15 CET
27 Provisional Starting Parrilla ↗ 2025-08-02 19:23
2025-08-02 19:23 CET
28 Post-Carrera Procedure ↗ 2025-08-03 09:56
2025-08-03 09:56 CET
29 Pre-Carrera Procedure ↗ 2025-08-03 10:00
2025-08-03 10:00 CET
30 Parc Fermé Issues ↗ 2025-08-03 11:45
2025-08-03 11:45 CET
31 Infringement - Car 22 - Changes made during Parc Ferme ↗ 22 Yuki Tsunoda 2025-08-03 13:02
22 Yuki Tsunoda 2025-08-03 13:02 CET
32 Parts and parameters been replaced and or changed during Parc Fermé ↗ 2025-08-03 13:58
2025-08-03 13:58 CET
33 Final Starting Parrilla ↗ 2025-08-03 14:00
2025-08-03 14:00 CET
34 Infringement - Car 27 - False Start ↗ 27 Nico Hülkenberg 2025-08-03 15:42
27 Nico Hülkenberg 2025-08-03 15:42 CET
35 Summons - Incident between Cars 1 & 44 ↗ 2025-08-03 16:45
2025-08-03 16:45 CET
36 Summons - Incident between Cars 44 & 1 ↗ 2025-08-03 16:45
2025-08-03 16:45 CET
37 Provisional Carrera Classification ↗ 2025-08-03 16:56
2025-08-03 16:56 CET
38 Decision - Car 22 - Alleged forcing another driver off of the track ↗ 22 Yuki Tsunoda 2025-08-03 18:09
22 Yuki Tsunoda 2025-08-03 18:09 CET
39 Carrera Deleted Vuelta Times ↗ 2025-08-03 17:31
2025-08-03 17:31 CET
40 Infringement - Car 10 - Colliding with Car 55 ↗ 10 Pierre Gasly 2025-08-03 18:10
10 Pierre Gasly 2025-08-03 18:10 CET
41 Infringement - Car 16 - Erratic Driving ↗ 16 Charles Leclerc 2025-08-03 18:11
16 Charles Leclerc 2025-08-03 18:11 CET
42 Decision - Car 1 - Alleged forcing another driver off of the track ↗ 1 Max Verstappen 2025-08-03 18:38
1 Max Verstappen 2025-08-03 18:38 CET
43 Carrera Scrutineering ↗ 2025-08-03 18:43
2025-08-03 18:43 CET
44 Final Carrera Classification ↗ 2025-08-03 19:05
2025-08-03 19:05 CET
45 Campeonato Puntos ↗ 2025-08-03 19:05
2025-08-03 19:05 CET
FIA official decisions and documents (fia.com) · PDF original PDF links
Record Basis · Calculation basis
Carrera order is the final classification(post-race penalties applied) · clasificación session data 2003+ · lap times 1996+ · pit stops 2012+ (pit-lane transit, not stationary time) · Abandono = Finished(Finished·+N Vueltas) non-Finished statuses
Fuentes de datos: Jolpica-F1 (Ergast compatible API) · weather·Dirección de carrera OpenF1 (2023+) · Last fetched: 2026-09-05 14:15